Powrót do katalogu

COSMOS 2232

AktywnyMilitariaHEO
NORAD 22321·PAYLOAD·🇷🇺 Russia

Wystrzelony Jan 26, 1993 z Plesetsk Cosmodrome

Loading…

Następne Przeloty (najbliższe 24 godziny)

TLE

ŚwieżeSource: Space-Track

Epoka: Sep 13, 2026, 08:42 UTC

1 22321U 93006A   26256.36279186  .00000715  00000-0  00000-0 0  9994
2 22321  67.2312 179.8412 5343520 123.8434 298.8115  2.00460934246163

Śledź COSMOS 2232 w czasie rzeczywistym z AllMySat

Download on the App Store